sat.trackr.live / text

‹ back to catalog

STARLINK-3616

NORAD 51782 · 2022-017Q

PAYLOAD ACTIVE UNKNOWN

§ Identity

Operator
Country
US
Launch date
2022-02-25
Launch site
AFWTR
Launch vehicle
Mass (kg)
RCS (m²)

Purposes: comms

External: N2YO · Heavens-Above · Gunter

§ Orbital elements

Epoch: 2026-05-24T23:47:08.172384Z

Period
95.44 min
Inclination
53.2134°
Eccentricity
0.0001235
Mean motion
15.08833752 rev/d
Perigee alt
538.9 km
Apogee alt
540.6 km
Semi-major
6,917.9 km
B*
6.4792e-5
RAAN
6.7432°
Arg perigee
98.2510°
Mean anomaly
261.8622°
Rev number
23,370

§ Raw data

STARLINK-36161 51782U 22017Q   26144.99106681  .00000743  00000+0  64792-4 0  99972 51782  53.2134   6.7432 0001235  98.2510 261.8622 15.08833752233705

JSON: /api/v1/satellites/51782 · /tle

For live sub-satellite position, see the globe view (requires WebGL).

§ Visibility from observer

Set your observer location to see the next 7 days of passes ≥ 10°. The values pass through the URL so the page stays shareable.

No JS? Fill the form by hand. The geolocation button needs JavaScript.